Location: Asheville, NC
(35.6000°N, 82.5500°W)
Time: 04:22:57
(UTC-04:00)

JUGNU - Pass Details

Date: 10 January 2018
Orbit: 837 x 864 km, 20.0° (Epoch: 17 July)

Event Time Altitude Azimuth Distance (km) Brightness Sun altitude
Rises 18:11:09 0° 243° (WSW) 3,409 ? -7.4°
Reaches altitude 10° 18:14:46 10° 222° (SW) 2,477 ? -8.1°
Maximum altitude 18:18:10 16° 187° (S) 2,105 ? -8.7°
Drops below altitude 10° 18:21:35 10° 151° (SSE) 2,481 ? -9.4°
Sets 18:25:13 0° 130° (SE) 3,419 ? -10.1°
